#timestamp,LO_Frequency,Hit,StdDev 
1654700415.4,286046999.1,P
1654700435.2,286046996.6,P
1654700455.1,286046999.2,N
1654700456.0,286046999.2,N
1654700475.8,286046998.8,N
1654700495.6,286046998.9,N
1654700515.5,286046996.6,Y
1654700535.3,286046998.3,P
1654700555.2,286046998.3,P
1654700575.0,286046998.7,P
1654700575.9,286046998.7,Y
1654700595.8,286047000.0,P
1654700615.6,286047000.3,N
1654700635.4,286047000.6,N
1654700655.3,286046998.7,N
1654700675.1,286047001.2,N
1654700695.8,286047000.7,N
1654700715.7,286046998.2,N
1654700735.5,286047001.0,N
1654700755.4,286047000.4,N
1654700775.2,286047000.4,N
1654700795.0,286047001.0,N
1654700795.9,286047001.0,N
1654700815.8,286047000.4,N
1654700835.6,286047000.2,N
1654700855.5,286046998.3,N
1654700875.3,286046998.9,N
1654700895.1,286046998.6,N
1654700915.9,286047000.6,N
1654700935.7,286047000.8,N
1654700955.5,286047001.1,N
1654700975.4,286047000.8,N
1654700995.2,286046998.2,N
1654701015.1,286046998.8,N
1654701016.0,286046998.8,N
1654701035.8,286046999.6,N
1654701055.6,286046999.3,N
1654701075.5,286046997.0,N
1654701095.3,286046996.7,N
1654701115.1,286046999.3,N
1654701135.9,286046999.5,N
1654701155.7,286046997.1,N
1654701175.6,286046997.3,N
1654701195.4,286046996.7,N
1654701215.2,286046996.5,N
1654701235.1,286046998.7,N
1654701236.0,286046998.7,N
1654701255.8,286046997.0,N
1654701275.6,286046996.8,N
1654701295.5,286046996.7,N
1654701315.3,286046998.9,N
1654701335.2,286046999.5,N
1654701355.9,286046998.2,N
1654701375.7,286046999.4,N
1654701395.6,286046998.2,N
1654701415.4,286047001.1,N
1654701435.2,286046998.5,N
1654701455.1,286047001.2,N
1654701456.0,286047001.2,N
1654701475.8,286047000.7,N
1654701495.7,286047000.9,N
1654701515.5,286046998.8,N
1654701535.3,286046998.3,N
1654701555.2,286046998.8,N
1654701575.0,286046998.2,N
1654701575.9,286046998.2,N
1654701595.8,286046998.7,N
1654701615.6,286047001.1,N
1654701635.4,286046998.4,N
1654701655.3,286046998.8,N
1654701675.1,286046999.3,N
1654701695.9,286046999.1,N
1654701715.7,286046999.1,N
1654701735.5,286046999.4,N
1654701755.4,286046998.3,N
1654701775.2,286046998.5,N
1654701795.0,286046998.6,N
1654701795.9,286046998.6,N
1654701815.8,286047001.0,N
1654701835.6,286047000.2,N
1654701855.5,286046999.9,N
1654701875.3,286046999.7,N
1654701895.1,286046999.8,N
1654701915.9,286047001.9,N
1654701935.7,286047002.5,N
1654701955.5,286047001.6,N
1654701975.4,286047002.1,N
1654701995.2,286047011.9,Y
1654702015.1,286047004.3,P
1654702016.0,286047004.3,N
1654702035.8,286047001.4,N
1654702055.7,286047002.1,N
1654702075.5,286047001.7,N
1654702095.3,286047001.4,N
1654702115.2,286046999.8,N
1654702135.9,286047002.3,N
1654702155.7,286047000.2,N
1654702175.6,286047002.4,N
1654702195.4,286047001.8,N
1654702215.3,286047002.8,N
1654702235.1,286047001.7,N
1654702236.0,286047001.7,N
1654702255.8,286047002.5,N
1654702275.7,286047003.8,N
1654702295.5,286047002.2,N
1654702315.3,286047001.4,N
1654702335.2,286047002.6,N
1654702355.0,286047002.5,N
1654702355.9,286047002.5,N
1654702375.8,286047001.7,N
1654702395.6,286047001.5,N
1654702415.4,286047002.5,N
1654702435.3,286047000.4,N
1654702455.1,286047000.6,N
1654702475.8,286047001.1,N
1654702495.7,286047000.7,N
1654702515.5,286046999.3,N
1654702535.4,286046996.5,N
1654702555.2,286046999.3,N
1654702575.0,286046999.1,N
1654702575.9,286046999.1,N
1654702595.8,286046999.6,N
1654702615.6,286046997.7,N
1654702635.4,286046996.7,N
1654702655.3,286046997.1,N
1654702675.1,286046997.5,N
1654702695.9,286046997.8,N
1654702715.7,286046995.6,N
1654702735.5,286046995.5,N
1654702755.4,286046993.8,N
1654702775.2,286046993.6,N
1654702795.0,286046994.8,N
1654702796.0,286046994.8,N
1654702815.8,286046992.1,N
1654702835.6,286046992.8,N
1654702855.5,286046992.9,N
1654702875.3,286046993.2,N
1654702895.1,286046990.7,N
1654702915.9,286046990.2,N
1654702935.7,286046990.5,N
1654702955.6,286046991.0,N
1654702975.4,286046991.2,N
1654702995.2,286046989.1,Y
1654703015.1,286046995.8,P
1654703016.0,286046995.8,P
1654703035.8,286046996.0,P
1654703055.6,286046996.1,Y
1654703075.5,286046999.3,P
1654703095.3,286046998.8,N
1654703115.2,286046998.4,N
1654703135.9,286047001.2,N
1654703155.7,286047000.8,N
1654703175.6,286046999.4,N
1654703195.4,286046997.1,N
1654703215.2,286046997.3,N
1654703235.1,286046998.0,N
1654703236.0,286046998.0,N
1654703255.8,286046997.1,N
1654703275.7,286046996.6,N
1654703295.5,286046999.5,N
1654703315.3,286046999.5,N
1654703335.2,286046996.8,N
1654703355.0,286046996.7,N
1654703355.9,286046996.7,N
1654703375.8,286046996.6,N
1654703395.6,286046999.1,N
1654703415.4,286046997.3,N
1654703435.3,286046996.7,N
1654703455.1,286046998.7,N
1654703475.8,286046996.5,N
1654703495.7,286046998.4,N
1654703515.5,286046999.6,N
1654703535.4,286046999.6,N
1654703555.2,286046999.1,N
1654703575.0,286046997.3,N
1654703575.9,286046997.3,N
1654703595.8,286046997.0,N
1654703615.6,286046998.9,N
1654703635.5,286046999.3,N
1654703655.3,286046999.4,N
1654703675.1,286046998.3,N
1654703695.9,286046998.7,N
1654703715.7,286046996.7,Y
1654703735.5,286046998.1,P
1654703755.4,286046998.4,P
1654703775.2,286046999.4,P
1654703795.1,286046999.4,N
1654703796.0,286046999.4,N
1654703815.8,286046998.1,Y
1654703835.6,286047000.3,P
1654703855.5,286046998.1,N
1654703875.3,286047000.3,N
1654703895.1,286046998.3,N
1654703915.9,286046999.4,N
1654703935.7,286046998.5,N
1654703955.6,286046999.0,N
1654703975.4,286046998.8,N
1654703995.2,286046999.4,N
